Weather History for New Bedford, MA

Change the Weather History Date:

Monday, June 23, 2014

  Actual Average Record
Temperature  
Mean Temperature 60 °F -  
Max Temperature 75 °F 77 °F 91 °F (1983)
Min Temperature 46 °F 61 °F 46 °F (2014)
Degree Days  
Heating Degree Days 4    
Growing Degree Days 10 (Base 50)    
Moisture  
Dew Point 51 °F    
Average Humidity 74    
Maximum Humidity 100    
Minimum Humidity 40    
Precipitation  
Precipitation 0.00 in - - ()
Sea Level Pressure  
Sea Level Pressure 30.12 in    
Wind  
Wind Speed 3 mph (South)    
Max Wind Speed 13 mph    
Max Gust Speed -    
Visibility 9 miles    
Events      
Averages and records for this station are not official NWS values.
T = Trace of Precipitation, MM = Missing Value Source: NWS Daily Summary

Daily Weather History Graph

Daily Weather History Graph

Search for Another Location

Airport:

Trip Planner

Search our weather history database for the weather conditions in past years. The results will help you decide how hot, cold, wet, or windy it might be!

Date:

Astronomy

Jun. 23, 2014 Rise Set
Actual Time 5:09 AM EDT 8:22 PM EDT
Civil Twilight 4:35 AM EDT 8:56 PM EDT
Nautical Twilight 3:51 AM EDT 9:40 PM EDT
Astronomical Twilight 2:58 AM EDT 10:33 PM EDT
Moon 2:36 AM EDT (6/23) 4:58 PM EDT (6/23)
Length of Visible Light 16h 20m
Length of Day
15h 12m
Waning Crescent, 13% of the Moon is Illuminated
Jun 23
Waning Crescent
Jun 27
New
Jul 5
First Quarter
Jul 12
Full
Jul 18
Last Quarter

Hourly Weather History & Observations

Time (EDT) Temp. Dew Point Humidity Pressure Visibility Wind Dir Wind Speed Gust Speed Precip Events Conditions
12:53 AM 52.0 °F 50.0 °F 93% 30.04 in 10.0 mi Calm Calm - N/A   Clear
1:53 AM 51.8 °F 50.0 °F 94% 30.04 in 10.0 mi Calm Calm - N/A   Clear
2:53 AM 48.0 °F 48.0 °F 100% 30.06 in 10.0 mi Calm Calm - N/A   Clear
3:53 AM 50.0 °F 48.0 °F 93% 30.06 in 10.0 mi Calm Calm - N/A   Clear
4:04 AM 48.0 °F 46.9 °F 96% 30.07 in 9.0 mi Calm Calm - N/A   Scattered Clouds
4:13 AM 48.9 °F 48.0 °F 97% 30.07 in 8.0 mi Calm Calm - N/A   Mostly Cloudy
4:34 AM 50.0 °F 48.0 °F 93% 30.08 in 10.0 mi Calm Calm - N/A   Scattered Clouds
4:53 AM 48.9 °F 48.0 °F 97% 30.08 in 10.0 mi Calm Calm - N/A   Clear
5:13 AM 48.0 °F 46.9 °F 96% 30.08 in 1.5 mi Calm Calm - N/A   Clear
5:21 AM 46.0 °F 45.0 °F 96% 30.08 in 0.8 mi Calm Calm - N/A   Clear
5:24 AM 46.9 °F 46.0 °F 97% 30.08 in 3.0 mi Calm Calm - N/A   Clear
5:53 AM 50.0 °F 48.9 °F 96% 30.09 in 10.0 mi Calm Calm - N/A   Clear
6:53 AM 57.9 °F 55.0 °F 90% 30.09 in 10.0 mi Calm Calm - N/A   Partly Cloudy
7:53 AM 66.0 °F 57.9 °F 75% 30.12 in 10.0 mi Calm Calm - N/A   Clear
8:53 AM 71.1 °F 57.0 °F 61% 30.13 in 10.0 mi Variable 3.5 mph - N/A   Clear
9:53 AM 72.0 °F 55.0 °F 55% 30.14 in 10.0 mi SE 8.1 mph - N/A   Clear
10:53 AM 73.0 °F 50.0 °F 44% 30.15 in 10.0 mi SE 6.9 mph - N/A   Clear
11:53 AM 73.9 °F 50.0 °F 43% 30.16 in 10.0 mi SSE 9.2 mph - N/A   Clear
12:53 PM 75.0 °F 48.9 °F 40% 30.16 in 10.0 mi SE 10.4 mph - N/A   Clear
1:53 PM 73.9 °F 52.0 °F 46% 30.16 in 10.0 mi SSE 12.7 mph - N/A   Clear
2:53 PM 73.9 °F 52.0 °F 46% 30.15 in 10.0 mi South 11.5 mph - N/A   Clear
3:53 PM 75.0 °F 48.9 °F 40% 30.14 in 10.0 mi South 12.7 mph - N/A   Clear
4:53 PM 73.0 °F 48.0 °F 41% 30.15 in 10.0 mi South 12.7 mph - N/A   Clear
5:53 PM 69.8 °F 50.0 °F 49% 30.16 in 10.0 mi SSW 9.2 mph - N/A   Clear
6:53 PM 68.0 °F 50.0 °F 52% 30.16 in 10.0 mi SW 9.2 mph - N/A   Clear
7:53 PM 64.9 °F 52.0 °F 63% 30.16 in 10.0 mi South 6.9 mph - N/A   Clear
8:53 PM 61.0 °F 53.1 °F 75% 30.17 in 10.0 mi SSW 3.5 mph - N/A   Clear
9:53 PM 59.0 °F 54.0 °F 83% 30.18 in 10.0 mi Calm Calm - N/A   Clear
10:53 PM 55.9 °F 53.1 °F 90% 30.17 in 10.0 mi SSW 3.5 mph - N/A   Clear
11:53 PM 57.9 °F 55.0 °F 90% 30.18 in 10.0 mi SW 3.5 mph - N/A   Clear